GFSFLT1_con_sbcape_336.txt.gz
CAPE
16 108 95 16 54 150 164 307 439 451 1161 979 851 1062 923 1084 1200 1728 1276 1298 1736 1763 1827 1575 1124 1626 1107 1133 637 1029 663 395 549
217 110 85 45 40 130 250 409 647 702 762 1154 1242 1488 1157 1365 1407 1428 2167 1684 1248 1712 1715 1769 1284 1469 1685 1643 915 842 723 717 912
471 118 276 197 7 51 408 496 748 911 914 916 1338 1655 1857 1550 1637 1548 1595 1679 1180 1210 1330 1931 1437 1511 2203 2102 1521 923 1096 1070 931
306 1 102 175 82 7 439 449 602 1026 1130 1117 1329 1366 1479 2161 1970 1745 1652 1753 1608 1177 1223 1931 1725 1673 2295 2343 2009 1553 1440 1558 1443
200 0 0 14 206 0 284 443 485 962 1290 1411 1597 1790 1617 1676 2267 2065 1919 1740 1868 2246 1934 1299 2304 2123 1936 1842 2372 2057 1784 1754 1911
14 410 1808 1058 406 269 28 78 565 1043 1331 1430 1561 1637 1841 1856 1927 2310 2223 2026 1706 1631 1939 1719 2159 2376 2366 2152 1997 2485 2285 1822 1913
1613 1394 978 929 432 711 696 210 499 833 1120 1316 1406 1560 1712 1853 1903 2174 2364 2320 2133 1774 1502 1774 1472 2119 2716 2673 2595 2400 2676 2525 1984
1020 929 944 474 357 265 223 51 33 108 291 905 1273 1451 1662 1850 1921 2096 2136 2135 2063 1991 1664 1609 1695 1668 1864 2443 2703 2937 2843 2861 1709
445 580 769 502 193 8 0 0 0 0 92 248 442 195 73 285 1698 2003 2022 1946 1778 1759 1846 1794 1763 1832 1831 1889 2534 2842 2794 2551 1407
269 59 454 386 271 211 7 10 31 27 98 142 71 59 134 224 105 850 1940 1934 1834 1882 1959 1887 1819 1822 1990 2021 2025 2255 1673 1212 799
415 67 80 261 141 76 27 0 6 53 42 55 163 106 70 6 162 41 0 16 188 313 494 997 1334 1926 2177 1074 0 345 632 344 629
403 113 0 31 39 1 0 0 0 0 0 6 67 25 58 702 205 14 0 0 0 16 3 20 299 73 0 0 0 86 114 277 490
381 166 0 54 66 0 0 0 5 0 0 0 6 16 26 35 356 28 0 0 0 0 0 31 0 0 0 0 0 1 2 9 2
373 163 44 51 53 62 2 0 0 0 0 18 2 12 0 0 23 113 3 0 0 0 0 0 0 0 0 0 0 0 1 0 3
415 453 238 101 162 200 224 57 6 36 86 0 315 695 719 734 844 29 0 36 85 0 0 0 0 0 0 0 0 0 0 1 6
106 205 249 114 191 247 23 12 50 122 2 23 21 0 15 298 1036 981 691 564 480 209 0 1 0 0 0 0 1 0 1 1 1
87 175 264 291 325 148 131 144 316 264 394 579 328 412 640 743 832 513 414 465 381 275 165 146 112 54 54 4 2 2 4 1 0
110 196 325 170 309 635 508 440 412 333 595 833 749 932 792 285 221 456 380 1 1 0 1 2 201 235 261 210 47 1 0 0 0
661 1045 949 583 734 804 870 1073 1040 1248 1361 1460 1231 393 248 0 201 22 160 140 14 1 1 2 1 1 8 83 18 42 0 0 0
581 563 595 575 683 798 885 1195 1431 1674 1784 1422 1444 1237 218 0 11 0 0 0 36 185 21 2 2 2 2 2 2 2 2 2 2

GFSFLT1_con_sbcape_339.txt.gz
CAPE
185 174 92 0 0 0 30 60 123 516 395 267 284 315 356 526 813 1108 569 534 1333 1398 1414 1350 1034 1217 694 657 419 767 549 314 475
105 77 93 24 0 0 7 35 104 222 615 332 312 427 446 423 692 894 1514 1253 1147 1497 1449 1558 1269 1105 1253 933 656 682 600 429 349
266 17 96 42 15 6 28 44 84 150 462 682 646 603 728 753 735 833 1064 1703 1373 1210 1523 1460 1681 1129 1439 1433 1396 584 618 484 441
261 15 0 37 93 18 121 134 192 351 301 511 752 918 1049 1055 1008 1037 1009 1143 1387 1070 1002 1106 1449 1205 1396 1754 1838 1292 716 742 870
272 18 14 751 246 15 131 237 301 419 530 610 668 989 1112 1516 1499 1428 1380 1313 1240 1255 1006 962 1538 1428 1364 1791 2018 1664 1262 1076 1423
98 613 1482 1407 107 108 23 281 355 511 689 882 877 959 1194 1136 1525 1909 1776 1659 1462 1383 1588 1602 1212 1800 1571 1565 1782 2118 1641 1423 1084
1274 1013 1078 543 427 474 292 304 309 430 681 997 1120 1295 1537 1545 1458 1604 1937 1918 1735 1442 1293 1518 1573 1794 1976 1990 1785 1613 1905 1926 1349
949 993 679 229 65 5 64 107 103 221 273 614 1043 1289 1428 1539 1782 1784 1830 2031 2033 1875 1493 1378 1345 1383 1786 2218 2353 2335 2074 2157 1935
581 701 583 143 6 6 0 45 171 302 408 352 157 329 577 536 723 916 1242 1747 1878 1884 1796 1634 1361 1317 1333 1370 1927 2360 2400 2340 1681
64 37 311 390 65 28 79 192 224 416 387 295 265 208 119 106 139 157 148 228 1107 1632 1446 1423 1420 1352 1476 1534 1372 1779 1630 1641 1193
47 0 96 153 110 76 6 41 88 95 34 221 410 206 272 302 315 60 59 83 186 208 252 919 1254 1433 1341 1325 1132 1066 1640 809 599
111 4 41 10 0 0 0 0 0 0 0 0 27 215 41 12 126 73 2 5 2 4 48 80 128 369 641 723 435 22 314 255 361
330 12 0 5 0 0 0 0 0 0 0 0 0 0 0 0 154 67 28 0 0 0 0 0 0 0 0 0 2 1 1 1 90
385 120 0 0 0 0 0 0 0 0 0 0 0 0 0 0 0 0 17 0 0 0 0 0 0 0 0 0 0 3 0 1 0
413 327 200 109 92 122 3 0 0 0 0 0 0 0 206 243 295 352 22 0 0 0 0 0 0 0 0 0 0 0 0 0 1
207 200 199 163 192 222 14 2 0 0 5 0 0 0 0 0 151 654 460 207 133 120 0 0 0 0 0 0 0 1 1 1 0
24 2 122 117 140 145 78 0 141 32 68 151 235 280 334 438 646 302 313 187 112 173 199 244 270 194 119 49 1 1 2 1 1
11 44 79 36 262 395 363 70 110 59 177 494 637 673 410 7 0 141 315 0 0 1 0 0 34 117 230 203 23 0 1 1 1
350 685 431 247 281 336 419 724 658 411 799 982 597 142 49 0 44 0 2 8 11 0 0 0 1 2 4 1 1 1 0 0 0
213 327 281 676 798 530 425 659 913 1167 1157 542 724 890 295 0 8 0 0 0 22 87 0 0 1 2 1 2 2 1 2 2 1

GFSFLT1_con_sbcape_342.txt.gz
CAPE
148 221 116 23 0 0 1 26 40 125 12 71 103 64 123 196 472 672 625 521 519 1121 1033 1130 1067 1233 871 623 636 858 441 546 497
54 157 161 47 6 0 0 0 33 140 114 46 71 132 110 97 313 530 850 767 590 1195 1290 1437 1305 1214 1119 953 634 767 798 530 445
108 83 89 28 33 0 0 13 19 51 229 168 107 105 146 196 147 377 582 1080 1267 945 1319 1463 1729 1405 1353 1059 1170 734 864 664 627
305 139 8 0 28 0 0 0 19 63 124 358 156 198 244 356 389 388 522 773 1159 1303 971 1233 1454 1578 1307 1440 1546 1374 827 866 784
357 168 48 557 1015 84 0 0 14 36 65 200 402 466 490 615 656 725 782 766 836 959 1078 962 1035 1356 1299 1491 1655 1767 1337 1050 1118
197 910 1075 663 435 101 0 13 35 56 113 149 320 346 681 894 1191 1198 1112 1097 1107 1062 1063 996 938 1230 1458 1440 1706 1933 1742 1437 1043
1099 868 533 240 223 167 112 39 41 92 201 371 566 503 799 825 901 1205 1578 1616 1501 1314 1196 1312 1368 1407 1487 1607 1526 1711 2086 1963 1458
682 574 266 111 67 68 69 103 210 385 635 764 927 1158 1197 1262 1479 1506 1450 1562 1618 1671 1507 1486 1377 1392 1542 1862 1984 1907 1782 1910 1836
321 685 289 95 64 26 49 111 184 390 564 863 1082 1217 842 553 325 58 43 263 681 1338 1755 1824 1388 1212 1305 1339 1730 1988 1985 1827 1839
4 131 403 247 67 53 122 167 180 213 183 225 242 241 197 414 122 22 29 53 67 251 825 1201 928 945 1023 1226 1249 1139 1096 1290 2248
1 15 61 141 105 44 41 73 69 12 22 87 264 199 212 88 0 0 0 21 0 11 177 629 589 426 270 1220 1222 989 346 282 1250
1 32 12 0 0 0 0 0 0 0 0 0 38 204 20 3 89 86 48 54 0 0 0 68 71 180 150 91 102 1 0 0 600
133 0 0 10 0 0 0 0 0 0 0 0 0 0 0 0 62 177 117 0 0 0 0 0 0 0 0 0 0 1 1 0 209
241 47 0 0 0 1 0 0 0 0 0 0 0 0 0 0 0 0 0 3 0 0 0 0 0 0 0 0 0 0 0 1 3
547 341 121 0 0 0 0 0 0 0 0 0 0 0 0 71 173 6 107 5 0 0 0 0 0 0 0 0 0 0 0 0 1
480 306 140 35 0 0 0 0 0 0 0 0 0 44 84 12 3 63 467 321 198 330 210 18 0 5 129 43 0 0 0 1 1
3 3 71 1 4 5 0 0 0 0 0 0 0 5 20 96 301 16 54 112 192 280 315 271 369 366 237 179 130 3 1 3 2
0 0 1 6 68 145 143 0 0 0 0 40 424 329 247 22 0 43 45 3 1 1 1 8 184 356 398 369 275 11 1 2 3
74 269 136 168 202 208 260 190 374 91 149 342 560 49 18 0 1 0 0 1 12 0 1 1 1 1 12 1 1 2 1 1 1
88 190 136 594 817 722 285 226 598 736 838 708 266 377 294 0 0 2 12 2 10 191 0 0 1 2 1 1 2 2 2 2 2

GFSFLT1_con_sbcape_345.txt.gz
CAPE
288 650 391 261 136 76 371 606 726 748 903 1198 1222 1208 1367 1527 1483 1144 1249 1528 1701 1778 1960 2052 2228 2612 2719 2514 2130 1865 2088 1806 1719
270 352 330 443 449 33 173 458 753 816 1034 1213 1291 1164 1465 1499 1459 1452 1447 1922 2025 1823 2144 2100 2503 2552 2785 2577 2187 1973 2184 1680 1804
176 165 246 289 379 415 85 106 358 680 878 1055 1172 1202 1411 1393 1321 1486 1547 1836 2093 2168 2339 2553 2731 2771 2721 2729 2501 2212 2039 1838 1975
643 462 253 199 133 250 300 138 132 373 660 934 1095 1152 1379 1468 1353 1246 1455 1525 1817 2085 2214 2592 2757 3076 2741 2968 2796 2687 2377 2179 2143
789 866 1470 1885 1931 1690 557 284 324 732 511 765 1137 1320 1546 1381 1360 1345 1200 1474 1638 1936 2215 2436 2771 2779 2859 2928 2776 2858 2855 2474 2151
1833 1746 1564 1406 1460 1616 912 438 443 617 977 899 1117 1317 1183 1162 1200 1273 1308 1394 1634 1877 2092 2249 2192 2435 2660 2781 2651 2808 2987 2909 3087
1674 1502 1280 1242 1203 1096 1040 873 599 810 789 825 961 1001 1071 1271 1501 1579 1692 1930 2259 2222 2525 2663 2715 2687 2722 2720 2656 2633 2777 2971 2901
1563 1419 1230 1048 971 1091 1126 1156 1248 1130 945 1155 1006 1340 1349 1509 1610 1887 2135 2536 2662 2724 2840 2902 3005 2926 2871 2771 2755 2583 2725 2965 3062
1438 1368 1108 954 893 829 1001 1151 1176 1319 1384 1456 1779 1820 1835 2114 2398 2592 2539 1787 1123 1510 1933 2265 2519 2443 2492 2190 2075 1821 1704 1838 2876
562 563 776 906 912 1161 1280 1223 1180 1042 900 922 1578 1628 1507 1655 1282 895 87 347 418 852 1373 1463 2214 1962 1851 1740 1676 1401 1228 383 1703
478 467 405 494 528 617 609 486 209 304 502 893 1210 1189 791 221 480 533 455 364 498 719 1002 1361 1756 1993 1255 433 484 505 43 4 527
482 568 467 330 242 159 143 79 115 217 169 318 1092 1332 1233 1006 778 622 689 973 740 544 684 744 917 1230 1250 1001 752 27 0 0 305
497 503 523 513 401 321 314 251 174 189 278 193 143 237 359 447 645 916 1007 809 559 541 424 364 241 245 341 333 351 21 1 0 375
771 561 426 422 467 554 535 408 321 529 429 284 247 215 417 472 628 707 684 651 876 586 410 361 418 341 272 216 141 166 0 1 53
1097 948 626 356 501 634 652 551 473 696 710 519 667 704 812 1195 1239 1072 1047 1296 1200 836 752 782 853 805 705 627 624 79 0 0 1
1314 1262 1105 629 617 670 691 688 659 952 917 592 1007 1056 1144 1027 1133 1405 1498 1634 1673 1330 1031 802 839 868 965 809 765 623 0 0 0
1124 1109 919 731 710 779 885 807 863 921 796 605 781 1333 1464 1328 1368 590 811 777 684 684 934 760 838 1024 1085 1121 903 751 400 13 5
675 726 601 767 1069 1225 1132 983 1003 976 1041 1055 1418 1709 1436 1107 228 668 643 155 80 88 92 4 313 582 443 1220 1290 825 16 10 142
552 690 851 1083 1365 1412 1349 1150 1590 1486 1177 1243 1690 1407 704 629 402 434 487 174 153 1 0 0 0 0 0 0 0 1 1 2 2
724 1211 1219 1649 1726 1940 2018 1608 1765 1904 1790 1795 1988 1647 1352 840 8 266 301 397 634 842 50 0 1 0 0 1 1 0 2 2 2